TimeAST,TemperatureF,Dew PointF,Humidity,Sea Level PressureIn,VisibilityMPH,Wind Direction,Wind SpeedMPH,Gust SpeedMPH,PrecipitationIn,Events,Conditions,WindDirDegrees,DateUTC
12:55 AM,77.5,67.5,71,29.91,6.2,NW,6.9,-,N/A,,Clear,320,2012-10-15 21:55:00
1:55 AM,76.5,67.3,73,29.91,6.2,WNW,4.6,-,N/A,,Clear,290,2012-10-15 22:55:00
2:55 AM,74.3,66.9,78,29.90,6.2,West,5.8,-,N/A,,Clear,280,2012-10-15 23:55:00
3:55 AM,73.0,66.7,81,29.91,6.2,West,4.6,-,N/A,,Clear,270,2012-10-16 00:55:00
4:55 AM,73.0,66.9,81,29.92,6.2,WNW,5.8,-,N/A,,Clear,290,2012-10-16 01:55:00
5:55 AM,73.4,66.2,78,29.94,6.2,West,3.5,-,N/A,,Clear,280,2012-10-16 02:55:00
6:55 AM,77.0,69.8,78,29.94,6.2,West,5.8,-,N/A,,Clear,260,2012-10-16 03:55:00
7:55 AM,82.6,73.0,73,29.97,6.2,West,8.1,-,N/A,,Clear,270,2012-10-16 04:55:00
8:55 AM,87.3,71.6,60,29.98,6.2,West,6.9,-,N/A,,Clear,260,2012-10-16 05:55:00
9:55 AM,91.4,67.1,45,29.97,6.2,West,5.8,-,N/A,,Clear,260,2012-10-16 06:55:00
10:55 AM,93.7,59.9,32,29.95,6.2,WSW,5.8,-,N/A,,Clear,250,2012-10-16 07:55:00
10:58 AM,93.2,60.8,34,29.95,6.2,West,5.8,-,N/A,,Light Drizzle,270,2012-10-16 07:58:00
11:07 AM,95.0,60.8,32,29.94,6.2,NW,4.6,-,N/A,,Partly Cloudy,310,2012-10-16 08:07:00
11:55 AM,95.4,59.0,30,29.92,6.2,WNW,9.2,-,N/A,,Clear,290,2012-10-16 08:55:00
12:55 PM,96.8,53.2,23,29.90,6.2,Variable,3.5,-,N/A,,Clear,0,2012-10-16 09:55:00
1:55 PM,98.6,45.3,16,29.88,6.2,NW,10.4,-,N/A,,Clear,310,2012-10-16 10:55:00
2:55 PM,98.1,43.5,15,29.87,6.2,NW,5.8,-,N/A,,Clear,310,2012-10-16 11:55:00
3:55 PM,96.3,46.9,19,29.88,6.2,NNW,3.5,-,N/A,,Clear,340,2012-10-16 12:55:00
4:55 PM,90.3,72.1,55,29.89,6.2,ENE,12.7,-,N/A,,Clear,70,2012-10-16 13:55:00
5:55 PM,89.2,67.8,49,29.91,6.2,NE,9.2,-,N/A,,Clear,40,2012-10-16 14:55:00
6:55 PM,88.2,65.8,47,29.93,6.2,NNE,6.9,-,N/A,,Clear,30,2012-10-16 15:55:00
7:55 PM,87.1,64.6,47,29.94,6.2,NNE,5.8,-,N/A,,Clear,20,2012-10-16 16:55:00
8:55 PM,85.3,69.8,60,29.95,6.2,NNE,4.6,-,N/A,,Clear,20,2012-10-16 17:55:00
9:55 PM,82.6,69.8,65,29.94,6.2,NW,5.8,-,N/A,,Clear,320,2012-10-16 18:55:00
10:55 PM,80.2,69.8,70,29.94,6.2,NNW,5.8,-,N/A,,Clear,330,2012-10-16 19:55:00
11:55 PM,78.1,68.9,73,29.93,6.2,NW,6.9,-,N/A,,Clear,320,2012-10-16 20:55:00